TimeMST,TemperatureF,Dew PointF,Humidity,Sea Level PressureIn,VisibilityMPH,Wind Direction,Wind SpeedMPH,Gust SpeedMPH,PrecipitationIn,Events,Conditions,WindDirDegrees,DateUTC
12:52 AM,33.1,25.0,72,29.93,10.0,Calm,Calm,-,N/A,,Clear,0,2011-11-30 07:52:00
1:52 AM,35.1,25.0,67,29.90,10.0,ENE,3.5,-,N/A,,Clear,60,2011-11-30 08:52:00
2:52 AM,33.1,26.1,75,29.88,10.0,Calm,Calm,-,N/A,,Clear,0,2011-11-30 09:52:00
3:52 AM,32.0,27.0,82,29.87,10.0,NNW,6.9,-,N/A,,Clear,330,2011-11-30 10:52:00
4:52 AM,34.0,26.1,73,29.85,10.0,NNW,10.4,-,N/A,,Clear,340,2011-11-30 11:52:00
5:52 AM,34.0,27.0,75,29.87,10.0,North,10.4,-,N/A,,Partly Cloudy,10,2011-11-30 12:52:00
6:52 AM,33.1,28.0,82,29.88,10.0,NNW,10.4,-,N/A,,Partly Cloudy,330,2011-11-30 13:52:00
7:52 AM,35.1,28.0,76,29.89,10.0,NW,13.8,-,N/A,,Clear,320,2011-11-30 14:52:00
8:52 AM,37.4,26.6,65,29.82,10.0,NNW,8.1,-,N/A,,Clear,330,2011-11-30 15:52:00
9:52 AM,39.9,26.1,58,29.89,10.0,NNW,9.2,-,N/A,,Partly Cloudy,340,2011-11-30 16:52:00
10:52 AM,42.1,26.1,53,29.88,10.0,NNW,12.7,-,N/A,,Mostly Cloudy,340,2011-11-30 17:52:00
11:52 AM,44.1,28.0,53,29.86,10.0,North,10.4,-,N/A,,Mostly Cloudy,10,2011-11-30 18:52:00
12:52 PM,46.0,27.0,47,29.85,10.0,NNE,6.9,-,N/A,,Overcast,20,2011-11-30 19:52:00
1:52 PM,44.1,27.0,51,29.88,10.0,NNE,12.7,-,N/A,,Overcast,20,2011-11-30 20:52:00
2:52 PM,42.1,28.0,58,29.92,10.0,North,13.8,-,N/A,,Overcast,360,2011-11-30 21:52:00
3:52 PM,39.9,28.0,63,29.96,10.0,North,12.7,-,N/A,,Overcast,360,2011-11-30 22:52:00
4:52 PM,37.9,27.0,65,30.00,10.0,North,11.5,-,N/A,,Overcast,10,2011-11-30 23:52:00
5:52 PM,39.0,28.9,67,30.03,10.0,North,12.7,-,N/A,,Overcast,360,2011-12-01 00:52:00
6:02 PM,39.2,30.2,70,29.97,10.0,North,12.7,-,N/A,,Overcast,360,2011-12-01 01:02:00
6:52 PM,37.0,30.0,76,30.08,10.0,NNE,9.2,-,0.00,Rain,Light Rain,30,2011-12-01 01:52:00
7:29 PM,35.6,30.2,81,30.04,9.0,NNE,6.9,-,0.00,Snow,Light Snow,20,2011-12-01 02:29:00
7:52 PM,33.8,30.2,87,30.06,9.0,North,8.1,-,N/A,Snow,Light Snow,360,2011-12-01 02:52:00
7:59 PM,33.8,30.2,87,30.06,5.0,North,10.4,-,0.00,Snow,Light Snow,10,2011-12-01 02:59:00
8:16 PM,33.8,30.2,87,30.08,2.0,North,8.1,-,0.00,Snow,Light Snow,360,2011-12-01 03:16:00
8:34 PM,32.0,30.2,93,30.09,1.8,NNE,12.7,-,0.01,Snow,Light Snow,20,2011-12-01 03:34:00
8:52 PM,32.0,30.0,92,30.18,1.8,NNE,13.8,-,0.01,Snow,Light Snow,20,2011-12-01 03:52:00
8:57 PM,30.2,30.2,100,30.11,2.0,NNE,10.4,-,0.00,Snow,Light Snow,20,2011-12-01 03:57:00
9:05 PM,30.2,30.2,100,30.11,2.5,North,11.5,-,0.00,Snow,Light Snow,10,2011-12-01 04:05:00
9:15 PM,30.2,30.2,100,30.12,3.0,NNE,12.7,-,0.00,Snow,Light Snow,20,2011-12-01 04:15:00
9:33 PM,30.2,30.2,100,30.13,4.0,NNE,12.7,-,0.00,Snow,Light Snow,20,2011-12-01 04:33:00
9:52 PM,30.9,28.9,92,30.22,2.5,NNE,10.4,-,0.00,Snow,Light Snow,30,2011-12-01 04:52:00
10:23 PM,30.2,28.4,93,30.17,1.8,NNE,13.8,-,0.01,Snow,Light Snow,20,2011-12-01 05:23:00
10:52 PM,30.0,28.0,92,30.28,1.5,North,16.1,-,0.02,Snow,Light Snow,10,2011-12-01 05:52:00
11:29 PM,30.2,28.4,93,30.23,1.2,North,20.7,24.2,N/A,Snow,Light Snow,360,2011-12-01 06:29:00
11:52 PM,28.9,27.0,92,30.33,0.8,North,17.3,24.2,0.02,Snow,Light Snow,10,2011-12-01 06:52:00
11:59 PM,28.4,26.6,93,30.26,1.0,North,20.7,26.5,0.00,Snow,Light Snow,360,2011-12-01 06:59:00